Terminal Aerodrome Forecast
Issued by NWS Wilmington, OH

Current Version | Previous Version | Text Only | Print | Product List | Glossary Off
Versions: 1 2 3 4 5 6 7 8 9 10 11 12 13 14 15 16 17 18 19 20 21 22

000
FTUS41 KILN 221100
TAFCMH
TAF
KCMH 221121Z 2212/2312 34009KT P6SM OVC011
      TEMPO 2212/2214 OVC008
     FM221500 36009KT P6SM OVC025
     FM221800 01008KT P6SM BKN035
     FM230000 02004KT P6SM SCT035=

USA.gov is the U.S. government's official web portal to all federal, state and local government web resources and services.